Preview of NWS' New Version of Forecast
This preview is not operational and should not be used for support decisions.

Regional Weather Roundup (RWR)

Issued by National Weather Service (NWS)

                            
000
ASUS43 KLSX 220557
RWRMO 

WEATHER SUMMARY FOR MISSOURI
NATIONAL WEATHER SERVICE SPRINGFIELD MO
100 AM CDT MON JUL 22 2019

NOTE: "FAIR" INDICATES FEW OR NO CLOUDS BELOW 12,000 FEET WITH NO
       SIGNIFICANT WEATHER AND/OR OBSTRUCTIONS TO VISIBILITY.
       CURRENT SKY AND/OR WEATHER CONDITIONS ARE NOT AVAILABLE FOR
       CHILLICOTHE AND FARMINGTON.

MOZ001>031-035>038-043-044-053-054-220700-
...NORTHERN AND WESTERN MISSOURI...
  
CITY           SKY/WX    TMP DP  RH WIND       PRES   REMARKS
KANSAS CTY INT CLOUDY    70  69  97 N12       30.05R                  
6HR MIN TEMP:  70; 6HR MAX TEMP:  80; 6HR PCP:  0.17;                

LEE'S SUMMIT   LGT RAIN  72  69  90 NE13      30.03R                  
6HR MIN TEMP:  72; 6HR MAX TEMP:  80; 6HR PCP:  0.38;                

ST JOSEPH      MOCLDY    70  68  93 N8        30.08R                  
6HR MIN TEMP:  70; 6HR MAX TEMP:  75;                                

CHILLICOTHE      N/A     72  70  93 CALM      30.05R                  
6HR MIN TEMP:  72; 6HR MAX TEMP:  79; 6HR PCP:  0.17;                

     
$$
MOZ066>068-077>081-088>096-101>105-220700-
...SOUTHWEST MISSOURI...
  
CITY           SKY/WX    TMP DP  RH WIND       PRES   REMARKS
SPRINGFIELD    RAIN      75  72  90 NW9       29.97R                  
6HR MIN TEMP:  75; 6HR MAX TEMP:  91; 6HR PCP:  0.02;                

JOPLIN         LGT RAIN  71  69  93 W5        30.02R                  
6HR MIN TEMP:  69; 6HR MAX TEMP:  90; 6HR PCP:  1.15;                

               
$$
MOZ032>034-039>042-045>050-055>058-069>072-220700-
...CENTRAL MISSOURI...  
  
CITY           SKY/WX    TMP DP  RH WIND       PRES   REMARKS
COLUMBIA       NOT AVBL                                               
ROLLA          RAIN      75  72  90 CALM      29.97S                  
6HR MIN TEMP:  75; 6HR MAX TEMP:  88; 6HR PCP:  0.09;                

SEDALIA        RAIN      70  70 100 N12       30.00S FOG              
6HR MIN TEMP:  70; 6HR MAX TEMP:  80; 6HR PCP:  0.91;                

WARRENSBURG    LGT RAIN  70  70 100 N9        30.00S                  
               
$$
MOZ051-052-059>065-220700-
...EAST CENTRAL MISSOURI...
  
CITY           SKY/WX    TMP DP  RH WIND       PRES   REMARKS
ST LOUIS INTL  MOCLDY    81  72  74 E7        29.93S                  
6HR MIN TEMP:  81; 6HR MAX TEMP:  88;                                

                   
$$
MOZ072>076-082>087-097>100-106>115-220700-
...SOUTH CENTRAL AND SOUTHEAST MISSOURI...
  
CITY           SKY/WX    TMP DP  RH WIND       PRES   REMARKS
CAPE GIRARDEAU MOCLDY    75  70  84 CALM      29.93R                  
6HR MIN TEMP:  74; 6HR MAX TEMP:  87; 6HR PCP:  0.52;                

POPLAR BLUFF   FAIR      80  79  96 SW8       29.90F                  
6HR MIN TEMP:  80; 6HR MAX TEMP:  89;                                

WEST PLAINS    PTCLDY    80  73  79 S5        29.95S                  
6HR MIN TEMP:  78; 6HR MAX TEMP:  88;                                

                                       
$$